Regional Weather Roundup
Issued by NWS

Home | Current Version | Previous Version | Graphics & Text | Print | Product List | Glossary On
Versions: 1 2 3 4 5 6 7 8 9 10 11 12 13 14 15 16 17 18 19 20 21 22 23 24 25 26 27 28 29 30 31 32 33 34 35 36 37 38 39 40 41 42 43 44 45 46 47 48 49 50
000
ASUS43 KFSD 180910
RWRSD

WEATHER ROUNDUP FOR SOUTH DAKOTA
NATIONAL WEATHER SERVICE SIOUX FALLS SD
300 AM CST THU JAN 18 2018

NOTE: "FAIR" INDICATES FEW OR NO CLOUDS BELOW 12,000 FEET WITH NO
SIGNIFICANT WEATHER AND/OR OBSTRUCTIONS TO VISIBILITY.


SDZ001>005-009-010-012>017-181000-
NORTHWEST AND NORTH CENTRAL SOUTH DAKOTA

CITY           SKY/WX    TMP DP  RH WIND       PRES   REMARKS
BUFFALO          N/A     35  22  58 W14       29.85F WCI  26
FAITH            N/A     28  19  69 SW10      29.94F WCI  19
MOBRIDGE       CLOUDY    26  20  77 SE7       29.91F WCI  18
$$

SDZ012>016-024>037-041>051-057-063-072>074-181000-
SOUTHWEST AND SOUTH CENTRAL SOUTH DAKOTA

CITY           SKY/WX    TMP DP  RH WIND       PRES   REMARKS
RAPID CTY ARPT PTCLDY    29  16  58 VRB3      29.96F
PIERRE         MOCLDY    26  21  81 N5        29.99S WCI  20
CUSTER         MOCLDY    33  15  47 W7        29.99F WCI  27
ELLSWORTH AFB  MOCLDY    28  18  66 W7        29.94F WCI  20
PHILIP         PTCLDY    23  20  88 W9        29.99S WCI  13
PINE RIDGE     CLEAR     25  19  78 W8        30.03F WCI  16
SPEARFISH        N/A     39  16  38 W7        29.96F
WINNER         FAIR      33  21  61 S13       30.00F WCI  24
$$

SDZ004>011-016>023-039-040-181000-
NORTHEAST SOUTH DAKOTA

CITY           SKY/WX    TMP DP  RH WIND       PRES   REMARKS
ABERDEEN       MOCLDY    20  17  88 S7        29.97F WCI  11
WATERTOWN      CLOUDY    20  18  92 S5        29.98F WCI  13
BROOKINGS      CLOUDY    16  13  88 MISG      30.02S
SISSETON         N/A     35  22  58 SW15      29.91F WCI  25
$$

SDZ017-020-022-023-036>040-048>070-181000-
SOUTHEAST SOUTH DAKOTA

CITY           SKY/WX    TMP DP  RH WIND       PRES   REMARKS
SIOUX FALLS    CLOUDY    18  14  84 CALM      30.05F
HURON          PTCLDY    15  13  91 SE6       30.01F WCI   6
CHAMBERLAIN    CLEAR     26  23  89 CALM      30.00F
MITCHELL       PTCLDY    19  17  92 S5        30.03F WCI  12
YANKTON        CLOUDY    22  17  81 SW5       30.08F WCI  16
$$

ABBREVIATIONS USED IN REMARKS
   TC - TEMPERATURE IN CELSIUS
  WCI - WIND CHILL INDEX
   HX - HEAT INDEX
  VSB - VISIBILITY





USA.gov is the U.S. government's official web portal to all federal, state and local government web resources and services.